This is the latest recevied weather packets stored in our database for station/object SQ9CIE-4. If no packets are shown the sender has not sent any weather packets the latest 1 day(s).
| Time | Temp. | Humidity | Pressure | Rain* | Wind** | Luminosity | Snow |
|---|---|---|---|---|---|---|---|
| 1778008858 | 18.89° C | 35% | 1006.5 hPa | 0 mm | 0.45 m/s, 133° | 0 W/m² | - |
| 1778008558 | 18.89° C | 35% | 1006.2 hPa | 0 mm | 0.89 m/s, 132° | 0 W/m² | - |
| 1778008258 | 18.89° C | 34% | 1006.2 hPa | 0 mm | 0.45 m/s, 133° | 0 W/m² | - |
| 1778007958 | 18.89° C | 33% | 1006.2 hPa | 0 mm | 1.34 m/s, 133° | 0 W/m² | - |
| 1778007658 | 20° C | 33% | 1006.1 hPa | 0 mm | 0.89 m/s, 149° | 0 W/m² | - |
| 1778007358 | 20° C | 32% | 1006 hPa | 0 mm | 0.89 m/s, 149° | 0 W/m² | - |
| 1778007058 | 20° C | 31% | 1005.9 hPa | 0 mm | 0.45 m/s, 149° | 0 W/m² | - |
| 1778006758 | 20° C | 31% | 1005.9 hPa | 0 mm | 0.89 m/s, 184° | 0 W/m² | - |
| 1778006458 | 20° C | 30% | 1005.9 hPa | 0 mm | 0.89 m/s, 166° | 0 W/m² | - |
| 1778006158 | 21.11° C | 30% | 1005.9 hPa | 0 mm | 0.89 m/s, 212° | 0 W/m² | - |
| 1778005858 | 21.11° C | 29% | 1005.8 hPa | 0 mm | 1.79 m/s, 213° | 0 W/m² | - |
| 1778005558 | 21.11° C | 29% | 1005.8 hPa | 0 mm | 2.24 m/s, 212° | 1 W/m² | - |
| 1778005258 | 21.11° C | 29% | 1005.7 hPa | 0 mm | 0.89 m/s, 214° | 1 W/m² | - |
| 1778004958 | 21.11° C | 29% | 1005.7 hPa | 0 mm | 0.89 m/s, 214° | 2 W/m² | - |
| 1778004658 | 22.22° C | 28% | 1005.6 hPa | 0 mm | 2.24 m/s, 214° | 3 W/m² | - |
| 1778004358 | 22.22° C | 28% | 1005.5 hPa | 0 mm | 2.68 m/s, 185° | 4 W/m² | - |
| 1778004058 | 22.22° C | 27% | 1005.5 hPa | 0 mm | 1.79 m/s, 192° | 6 W/m² | - |
| 1778003758 | 22.22° C | 27% | 1005.6 hPa | 0 mm | 1.79 m/s, 211° | 8 W/m² | - |
| 1778003458 | 22.22° C | 26% | 1005.5 hPa | 0 mm | 2.24 m/s, 211° | 10 W/m² | - |
| 1778003158 | 22.78° C | 26% | 1005.4 hPa | 0 mm | 3.13 m/s, 185° | 12 W/m² | - |
| 1778002858 | 22.78° C | 26% | 1005.3 hPa | 0 mm | 3.58 m/s, 205° | 13 W/m² | - |
| 1778002558 | 22.78° C | 25% | 1005.4 hPa | 0 mm | 2.68 m/s, 209° | 17 W/m² | - |
| 1778002258 | 22.78° C | 25% | 1005.1 hPa | 0 mm | 4.02 m/s, 208° | 19 W/m² | - |
| 1778001958 | 22.78° C | 25% | 1005.2 hPa | 0 mm | 4.02 m/s, 197° | 22 W/m² | - |
| 1778001658 | 23.89° C | 24% | 1005 hPa | 0 mm | 4.92 m/s, 201° | 27 W/m² | - |
* Rain latest hour (hover to see other rain measurements)
** Current wind speed in m/s (hover to see current wind gust speed)